Weather History for Fullerton, CA

Change the Weather History Date:

Wednesday, October 5, 2011

  Actual Average Record
Temperature  
Mean Temperature 63 °F 70 °F  
Max Temperature 65 °F 80 °F 94 °F (2005)
Min Temperature 60 °F 60 °F 53 °F (1998)
Degree Days  
Heating Degree Days 2 0  
Month to date heating degree days 2 0  
Since 1 July heating degree days 2 1  
Cooling Degree Days 0 5  
Month to date cooling degree days 34 28  
Year to date cooling degree days 1058 1146  
Growing Degree Days 12 (Base 50)    
Moisture  
Dew Point 58 °F    
Average Humidity 86    
Maximum Humidity 93    
Minimum Humidity 78    
Precipitation  
Precipitation 0.66 in 0.01 in 0.67 in (2011)
Month to date precipitation 0.69 0.04  
Year to date precipitation 6.32 10.02  
Since 1 July precipitation 0.75 0.37  
Snow  
Snow 0.00 in - - ()
Month to date snowfall 0.0  
Year to date snowfall 0.0  
Since 1 July snowfall 0.0  
Snow Depth -    
Sea Level Pressure  
Sea Level Pressure 29.90 in    
Wind  
Wind Speed 5 mph (South)    
Max Wind Speed 12 mph    
Max Gust Speed 17 mph    
Visibility 5 miles    
Events Rain    
T = Trace of Precipitation, MM = Missing Value Source: NWS Daily Summary

Daily Weather History Graph

Daily Weather History Graph

Search for Another Location

Airport:

Trip Planner

Search our weather history database for the weather conditions in past years. The results will help you decide how hot, cold, wet, or windy it might be!

Date:

Astronomy

Oct. 05, 2011 Rise Set
Actual Time 6:49 AM PDT 6:31 PM PDT
Civil Twilight 6:24 AM PDT 6:55 PM PDT
Nautical Twilight 5:55 AM PDT 7:24 PM PDT
Astronomical Twilight 5:26 AM PDT 7:53 PM PDT
Moon 2:59 PM PDT (10/5) 12:56 AM PDT (10/5)
Length of Visible Light 12h 31m
Length of Day
11h 41m
Waxing Gibbous, 67% of the Moon is Illuminated
Oct 5
Waxing Gibbous
Oct 11
Full
Oct 19
Last Quarter
Oct 26
New
Nov 2
First Quarter

Hourly Weather History & Observations

Time (PDT) Temp. Dew Point Humidity Pressure Visibility Wind Dir Wind Speed Gust Speed Precip Events Conditions
12:21 AM 64.4 °F 57.2 °F 77% 29.97 in 10.0 mi South 4.6 mph - N/A   Overcast
12:53 AM 64.0 °F 57.0 °F 78% 29.95 in 10.0 mi Calm Calm - N/A   Overcast
1:05 AM 62.6 °F 57.2 °F 82% 29.96 in 10.0 mi Calm Calm - N/A   Mostly Cloudy
1:53 AM 63.0 °F 57.0 °F 81% 29.95 in 10.0 mi Calm Calm - N/A   Clear
2:53 AM 62.1 °F 57.0 °F 84% 29.94 in 10.0 mi Calm Calm - N/A   Overcast
3:20 AM 62.6 °F 57.2 °F 82% 29.93 in 10.0 mi South 3.5 mph - N/A   Overcast
3:53 AM 63.0 °F 55.9 °F 78% 29.93 in 10.0 mi SSE 3.5 mph - N/A   Overcast
4:53 AM 63.0 °F 55.9 °F 78% 29.94 in 10.0 mi Variable 3.5 mph - N/A   Overcast
5:53 AM 63.0 °F 55.9 °F 78% 29.92 in 10.0 mi Calm Calm - N/A   Overcast
6:18 AM 62.6 °F 55.4 °F 77% 29.93 in 10.0 mi SSE 3.5 mph - N/A   Overcast
6:53 AM 63.0 °F 55.9 °F 78% 29.93 in 10.0 mi South 3.5 mph - 0.00 in   Overcast
8:17 AM 62.6 °F 55.4 °F 77% 29.92 in 3.0 mi SSE 10.4 mph 17.3 mph 0.00 in Rain Light Rain
8:24 AM 62.6 °F 55.4 °F 77% 29.93 in 2.5 mi SSE 11.5 mph 18.4 mph 0.01 in Rain Light Rain
8:32 AM 60.8 °F 55.4 °F 82% 29.93 in 4.0 mi SSE 10.4 mph 18.4 mph 0.01 in Rain Light Rain
8:46 AM 60.8 °F 57.2 °F 88% 29.95 in 1.0 mi South 5.8 mph - 0.05 in Rain Heavy Rain
8:53 AM 61.0 °F 57.0 °F 87% 29.94 in 1.0 mi SSE 4.6 mph - 0.08 in Rain Heavy Rain
9:19 AM 60.8 °F 57.2 °F 88% 29.93 in 3.0 mi SE 4.6 mph - 0.03 in Rain Light Rain
9:21 AM 60.8 °F 57.2 °F 88% 29.94 in 2.5 mi SSE 4.6 mph - 0.04 in Rain Light Rain
9:28 AM 60.8 °F 57.2 °F 88% 29.93 in 1.5 mi SE 4.6 mph - 0.05 in Rain Rain
9:35 AM 60.8 °F 57.2 °F 88% 29.93 in 1.5 mi SSE 4.6 mph - 0.06 in Rain Light Rain
9:53 AM 61.0 °F 57.9 °F 90% 29.92 in 1.8 mi SSE 6.9 mph - 0.10 in Rain Light Rain
10:38 AM 60.8 °F 57.2 °F 88% 29.91 in 2.5 mi SE 6.9 mph - 0.04 in Rain Light Rain
10:53 AM 61.0 °F 57.9 °F 90% 29.91 in 1.2 mi SSE 8.1 mph - 0.07 in Rain Rain
11:51 AM 62.6 °F 59.0 °F 88% 29.88 in 3.0 mi SSE 9.2 mph - 0.08 in Rain Light Rain
11:52 AM 62.1 °F 59.0 °F 90% 29.88 in 3.0 mi SSE 9.2 mph - 0.08 in Rain Light Rain
11:59 AM 62.6 °F 59.0 °F 88% 29.88 in 2.0 mi SSE 6.9 mph - 0.01 in Rain Light Rain
12:53 PM 63.0 °F 60.1 °F 90% 29.86 in 2.0 mi South 10.4 mph - 0.14 in Rain Heavy Rain
12:59 PM 62.6 °F 60.8 °F 94% 29.85 in 1.5 mi South 9.2 mph - 0.01 in Rain Rain
1:09 PM 64.4 °F 60.8 °F 88% 29.85 in 3.0 mi SSW 10.4 mph 17.3 mph 0.02 in Rain Light Rain
1:18 PM 64.4 °F 60.8 °F 88% 29.84 in 2.5 mi South 11.5 mph 20.7 mph 0.03 in Rain Rain
2:00 PM 64.4 °F 60.8 °F 88% 29.83 in 2.5 mi SW 11.5 mph 20.7 mph 0.01 in Rain Light Rain
2:17 PM 64.4 °F 60.8 °F 88% 29.83 in 3.0 mi SSW 12.7 mph - 0.03 in Rain Light Rain
2:24 PM 64.4 °F 60.8 °F 88% 29.82 in 9.0 mi SSW 8.1 mph 17.3 mph 0.03 in   Overcast
2:39 PM 64.4 °F 60.8 °F 88% 29.82 in 5.0 mi South 9.2 mph - 0.04 in Rain Light Rain
2:56 PM 64.4 °F 62.6 °F 94% 29.81 in 2.5 mi SSW 8.1 mph - 0.00 in Rain Light Rain
3:56 PM 64.4 °F 62.6 °F 94% 29.79 in 10.0 mi WSW 9.2 mph - 0.00 in Rain Light Rain
4:10 PM 64.4 °F 60.8 °F 88% 29.79 in 9.0 mi SW 6.9 mph - 0.00 in Rain Light Rain
5:53 PM 64.9 °F 57.0 °F 75% 29.79 in 10.0 mi Variable 5.8 mph - 0.01 in   Overcast